This is the latest recevied weather packets stored in our database for station/object YF9UAG-15. If no packets are shown the sender has not sent any weather packets the latest 10 day(s).
| Time | Temp. | Humidity | Pressure | Rain* | Wind** | Luminosity | Snow |
|---|---|---|---|---|---|---|---|
| 1778023234 | 30° C | 100% | 1008.6 hPa | - | - | - | - |
| 1778023113 | 29.44° C | 100% | 1008.7 hPa | - | - | - | - |
| 1778022992 | 29.44° C | 100% | 1008.7 hPa | - | - | - | - |
| 1778022871 | 30° C | 100% | 1008.7 hPa | - | - | - | - |
| 1778022750 | 29.44° C | 100% | 1008.7 hPa | - | - | - | - |
| 1778022629 | 29.44° C | 100% | 1008.7 hPa | - | - | - | - |
| 1778022508 | 28.89° C | 100% | 1008.7 hPa | - | - | - | - |
| 1778022387 | 28.89° C | 100% | 1008.8 hPa | - | - | - | - |
| 1778022266 | 28.33° C | 100% | 1008.8 hPa | - | - | - | - |
| 1778022145 | 28.89° C | 100% | 1008.8 hPa | - | - | - | - |
| 1778022024 | 29.44° C | 100% | 1008.7 hPa | - | - | - | - |
| 1778021903 | 28.89° C | 100% | 1008.7 hPa | - | - | - | - |
| 1778021783 | 28.89° C | 100% | 1008.7 hPa | - | - | - | - |
| 1778021662 | 28.89° C | 100% | 1008.7 hPa | - | - | - | - |
| 1778021541 | 28.89° C | 100% | 1008.7 hPa | - | - | - | - |
| 1778021420 | 28.33° C | 100% | 1008.5 hPa | - | - | - | - |
| 1778021299 | 28.33° C | 100% | 1008.4 hPa | - | - | - | - |
| 1778021178 | 30° C | 100% | 1008.4 hPa | - | - | - | - |
| 1778021057 | 29.44° C | 100% | 1008.4 hPa | - | - | - | - |
| 1778020936 | 28.89° C | 100% | 1008.4 hPa | - | - | - | - |
| 1778020815 | 29.44° C | 100% | 1008.3 hPa | - | - | - | - |
| 1778020694 | 28.89° C | 100% | 1008.2 hPa | - | - | - | - |
| 1778020573 | 28.89° C | 100% | 1008.2 hPa | - | - | - | - |
| 1778020452 | 28.89° C | 100% | 1008.1 hPa | - | - | - | - |
| 1778020331 | 28.89° C | 100% | 1008.1 hPa | - | - | - | - |
* Rain since midnight (hover to see other rain measurements)
** Current wind speed in m/s (hover to see current wind gust speed)